Printer-friendly version

IAU Minor Planet Center

Minor Planet Center

MPEC 2008-A49 : COMET C/2007 T1 (McNAUGHT)

The following Minor Planet Electronic Circular may be linked-to from your own Web pages, but must not otherwise be redistributed electronically.


Read MPEC 2008-A48 Read MPEC 2008-A50


M.P.E.C. 2008-A49                                Issued 2008 Jan. 11, 18:24 UT

     The Minor Planet Electronic Circulars contain information on unusual
         minor planets and routine data on comets.  They are published
   on behalf of Commission 20 of the International Astronomical Union by the
          Minor Planet Center, Smithsonian Astrophysical Observatory,
                          Cambridge, MA 02138, U.S.A.

             Prepared using the Tamkin Foundation Computer Network

                              MPC@CFA.HARVARD.EDU
          URL http://www.cfa.harvard.edu/iau/mpc.html  ISSN 1523-6714

                          COMET C/2007 T1 (McNAUGHT)

Observations:
    CK07T010  C2008 01 10.72215 16 58 39.83 -65 06 19.1          13.6 T EA049423
    CK07T010  C2008 01 10.72389 16 58 39.71 -65 06 25.4          13.6 T EA049423
    CK07T010  C2008 01 11.71315 16 58 02.92 -65 58 34.5          13.7 T EA049423
    CK07T010  C2008 01 11.72791 16 58 02.41 -65 59 22.1          13.8 T EA049423

Observer details:
423 North Ryde.  Observer S. G. McAndrew.  0.20-m f/4 hyperbolic astrograph
    + CCD.

Orbital elements:
    C/2007 T1 (McNaught)
Epoch 2007 Dec. 6.0 TT = JDT 2454440.5
T 2007 Dec. 12.53059 TT                                 MPC
q   0.9684714            (2000.0)            P               Q
z  +0.0003102      Peri.  233.75743     -0.13226399     -0.55004978
 +/-0.0000327      Node   111.43415     -0.34616451     +0.80515309
e   0.9996995      Incl.  117.64254     -0.92880373     -0.22175153
Residuals in seconds of arc
071009 E12  0.1-  0.5-    071010 I77  0.6-  1.1-    071015 J70  0.1+  0.2+
071009 E12  0.2-  0.5-    071010 I77  0.4-  0.4-    071015 J70  1.1+  0.6-
071009 E12  0.1-  0.6-    071010 I77  0.4-  0.2+    071015 J70  1.8+  1.2-
071009 E12  0.1-  0.4-    071011 H68  0.0   1.3-    071015 I77  0.9+  0.5-
071009 595  0.4+  0.6+    071011 H68  0.2+  1.1-    071015 I77  0.3-  0.2-
071009 473  1.0+  0.3+    071011 H47  0.3-  0.3-    071015 I77  0.3-  0.2-
071009 473  0.7-  0.9+    071011 H47  0.4-  0.4+    071016 E12  0.3-  0.4-
071009 595  0.1+  0.4+    071011 H68  0.1-  1.1-    071016 E12  0.3-  0.3-
071009 595  1.1+  0.4+    071011 H68  0.0   1.0-    071016 585  0.5-  1.4+
071009 024  0.6-  0.2-    071011 H68  0.0   1.0-    071016 585  0.6-  0.6+
071009 151  0.3+  0.6+    071011 415  0.2-  0.1-    071016 585  0.7-  0.0
071009 151  0.6+  0.1+    071011 415  0.1+  0.3-    071016 585  0.1+  0.7+
071009 024  0.3-  0.1-    071011 235  0.3-  0.5+    071016 585  1.1-  0.8+
071009 151  0.7+  0.0     071012 H47  0.3-  0.3+    071016 A97  1.4-  0.4+
071009 024  0.5-  0.2-    071012 H47  0.7-  0.1-    071016 A97 (0.1-  2.1-)
071009 B04  0.5-  0.4+    071012 E12  0.2-  0.4-    071018 E12  0.2-  0.4-
071009 B04  0.3-  0.0     071012 E12  0.3-  0.8-    071018 E12  0.2-  0.4-
071009 B04  0.5+  0.1+    071012 415  0.4-  0.2-    071019 E12  0.3-  0.2-
071009 151  0.0   0.1-    071012 415  0.3-  1.1-    071020 413  0.8-  0.3-
071009 B04  0.5-  0.0     071012 E00  1.2+  0.2+    071020 413  0.7-  0.1-
071009 595  0.5+  0.3+    071012 E00  0.6+  1.0-    071020 413  0.7-  0.0
071009 151  0.0   0.1-    071012 E00  1.2+  0.6+    071020 413  0.7-  0.1-
071009 151  0.1-  0.2-    071012 A77  0.0   0.7+    071020 D88  0.3+  0.3+
071009 B04  0.4-  0.1+    071012 A77  0.6-  0.1-    071020 413  0.7-  0.1-
071009 B04  1.0-  0.0     071012 A77  0.1-  0.3+    071020 413  0.7-  0.1-
071009 595  0.7+  0.0     071012 I77  0.4+  0.0     071020 413  0.8-  0.1-
071009 A77  0.7+  0.3-    071012 I77  0.4+  0.2-    071020 413  0.8-  0.1-
071009 A77  0.8+  0.5-    071013 H47  1.8-  0.0     071020 413  0.8-  0.0
071009 A77  0.7+  0.0     071013 H47  0.1-  0.2-    071020 349  0.1+  0.1-
071009 A77  0.9+  0.2-    071013 H06  0.2+  0.2-    071020 413  0.8-  0.1-
071009 046  0.0   0.6+    071013 H06  0.5-  0.5-    071020 D88  0.4+  0.5+
071009 A77  0.6+  0.1-    071013 E12  0.2-  0.4-    071020 349  0.1+  0.1-
071009 046  0.2+  0.4+    071013 E12  0.2-  0.4-    071020 D88  0.5+  0.5+
071009 046  0.1-  0.0     071013 E12  0.2-  0.5-    071020 349  0.0   0.2-
071009 046  0.1-  0.3+    071013 E11  0.5-  0.3+    071021 D88  0.1-  1.2+
071009 A77  0.6+  0.2-    071013 E11  0.1-  0.4-    071021 349  0.0   0.0
071009 046  0.2-  0.4+    071013 104  0.2+  0.2+    071021 D88  0.4+  0.3+
071009 046  0.3-  0.2+    071013 104  0.0   0.1+    071021 349  0.1+  0.1+
071009 046  0.5-  0.7+    071013 104  0.2-  0.3+    071021 349  0.1+  0.1+
071009 046  0.6-  0.6+    071013 235  0.4-  0.1+    071021 D88  0.1-  0.4+
071009 046  0.6-  0.4+    071013 J47  0.4+  0.1-    071021 D81  1.6+  1.2+
071009 A77  0.9+  0.0     071013 J47  0.4-  0.0     071021 372  0.5+  0.4-
071009 J95  0.1-  0.6+    071013 J47  0.7+  0.5-    071021 D81  0.6-  0.1+
071009 A77  1.2+  0.3-    071013 J47  0.4+  0.2-    071021 D81  1.0+  1.8-
071009 J95  0.2+  0.4+    071013 J47  1.0-  1.0+    071021 D81  0.8-  1.8+
071009 J95  0.0   0.1+    071014 H47  0.2-  0.1+    071021 372  0.2+  0.5-
071009 J95  0.1-  0.0     071014 H47  0.5+  0.6+    071021 E12  0.3-  0.3-
071009 A77  0.5+  0.0     071014 E12  0.2-  0.4-    071021 372  1.2+  0.6-
071009 A77  0.6+  0.0     071014 E12  0.3-  0.4-    071021 E12  0.3-  0.3-
071009 A77  0.6+  0.2-    071014 E00  0.4+  1.4-    071021 D70  0.2+  0.3-
071009 A77  0.8+  0.0     071014 E00  0.0   0.3-    071021 D70  0.4-  0.6-
071009 A77  0.7+  0.2+    071014 E00  0.6+  0.9+    071021 D70  0.7-  0.5-
071009 A77  0.5+  0.2+    071014 415  0.3-  0.2-    071021 213  0.4-  0.0
071009 I77  0.1+  0.1-    071014 415  0.2-  0.7-    071021 213  0.7-  0.5-
071009 I77  0.1+  0.2-    071014 246  0.1+  0.0     071022 E12  0.2-  0.4-
071009 I77  0.5-  0.2-    071014 246  0.1+  0.1-    071023 372  0.3-  0.7+
071010 H06  0.7+  0.5+    071014 246  0.1+  0.1+    071028 349  0.1-  0.2-
071010 H06  0.1-  0.1-    071014 246  0.2+  0.0     071028 349  0.1+  0.0
071010 104  1.5-  1.0+    071014 246  0.0   0.1-    071028 349  0.0   0.1-
071010 104 (2.6+  0.5+)   071014 246  0.1+  0.0     071028 D88  0.0   0.3+
071010 104  0.7+  1.2+    071014 235  0.5-  0.0     071028 D88  0.1-  0.3+
071010 104 (2.1+  1.5+)   071014 A18  0.0   0.5+    071028 D88  0.1+  0.3+
071010 204  0.3-  0.3+    071014 A18  0.2+  0.3+    071103 349  1.0+  0.5+
071010 204  0.1-  0.3+    071014 J70  0.2-  0.4-    071103 349  1.0+  0.8+
071010 J46  0.2+  0.1+    071014 J70  1.2-  1.1-    071103 349  0.7+  0.7+
071010 204  0.5+  0.3+    071014 J70  0.3-  0.2+    071104 349  0.7+  0.2-
071010 204  0.1-  0.1+    071014 J70  1.3-  0.2-    071104 349  0.5+  0.1+
071010 J46  0.3+  0.3+    071014 J70  0.3+  0.3+    080110 423  0.0   0.0
071010 J46  0.4-  0.3+    071014 J70  0.5+  1.6-    080110 423  0.4-  0.8-
071010 J47  0.6+  0.8+    071014 A18  0.0   0.1-    080111 423  0.0   0.2+
071010 J47  0.2-  1.1+    071014 I77  1.8+  0.1+    080111 423  0.4+  0.3+
071010 J47  1.0+  0.6-    071015 E12  0.3-  0.2-
071010 J47  0.5-  0.0     071015 J70  0.2+  0.6-

Ephemeris:
    C/2007 T1 (McNaught)
Date    TT    R. A. (2000) Decl.     Delta      r     Elong.  Phase   m1    m2
2008 01 05    17 01.15   -60 26.4    1.527    1.051    43.1    39.7  11.6
2008 01 15    16 55.34   -69 01.0    1.374    1.127    54.1    45.0  11.7
2008 01 25    16 28.01   -79 53.0    1.227    1.221    65.9    47.4  11.8
2008 02 04    07 31.76   -84 57.4    1.113    1.326    78.1    46.7  12.0
2008 02 14    06 02.39   -68 31.6    1.063    1.439    89.0    43.3  12.2
2008 02 24    05 55.61   -50 54.6    1.103    1.557    96.0    39.2  12.6
2008 03 05    05 57.61   -35 19.4    1.232    1.678    97.4    35.9  13.2
2008 03 15    06 02.69   -23 07.4    1.429    1.801    94.3    33.4  13.8
2008 03 25    06 09.33   -14 05.1    1.670    1.924    88.6    31.2  14.5
2008 04 04    06 16.92   -07 26.5    1.936    2.048    81.8    28.9  15.0
2008 04 14    06 25.14   -02 30.3    2.213    2.171    74.4    26.4  15.6
2008 04 24    06 33.77   +01 13.3    2.492    2.293    66.9    23.8  16.1
2008 05 04    06 42.67   +04 05.1    2.766    2.415    59.4    21.1  16.5
2008 05 14    06 51.73   +06 18.5    3.031    2.535    51.9    18.3  16.9
2008 05 24    07 00.84   +08 03.3    3.281    2.655    44.5    15.5  17.3
2008 06 03    07 09.93   +09 26.2    3.515    2.773    37.0    12.7  17.7

     The "original" and "future" barycentric values of 1/a are +0.000679
and +0.000528 (+/- 0.000033) AU^-1, respectively.

Brian G. Marsden             (C) Copyright 2008 MPC           M.P.E.C. 2008-A49

Read MPEC 2008-A48 Read MPEC 2008-A50


Our Web policy. Index to the CBAT/MPC/ICQ pages.


Valid HTML 4.01!